Regional Weather Roundup
Issued by NWS Glasgow, MT

Home | Current Version | Previous Version | Text Only | Print | Product List | Glossary On
Versions: 1 2 3 4 5 6 7 8 9 10 11 12 13 14 15 16 17 18 19 20 21 22 23 24 25 26 27 28 29 30 31 32 33 34 35 36 37 38 39 40 41 42 43 44 45 46 47 48 49 50
000
ASUS45 KGGW 181815
RWRGGW
HOURLY WEATHER ROUNDUP FOR NORTHEAST MONTANA
NATIONAL WEATHER SERVICE GLASGOW MONTANA
1100 AM MST THU DEC 18 2014

NOTE: "FAIR" INDICATES FEW OR NO CLOUDS BELOW 12,000 FEET WITH NO
SIGNIFICANT WEATHER AND/OR OBSTRUCTIONS TO VISISBILITY.

NORTHEAST MONTANA


CITY           SKY/WX    TMP DP  RH WIND       PRES   REMARKS
GLASGOW        CLOUDY    26  24  92 CALM      29.94F FOG
6HR MIN TEMP:  24; 6HR MAX TEMP:  26;

PLENTYWOOD       N/A     24  24 100 S6          N/A
WOLF POINT     CLOUDY    29  24  82 CALM      29.97F
JORDAN           N/A     35  27  72 W7        29.93F
SIDNEY         CLOUDY    27  21  80 CALM      30.00F
GLENDIVE       SUNNY     30  25  80 S9        29.97F
MALTA            N/A     22  21  96 W2          N/A

FORT PECK REPORTS


CITY           SKY/WX    TMP DP  RH WIND       PRES   REMARKS
FORT PECK        N/A     33  28  81 SE3         N/A
THE PINES        N/A     34  27  75 S2          N/A

SOUTHEAST MONTANA


CITY           SKY/WX    TMP DP  RH WIND       PRES   REMARKS
BILLINGS       MOSUNNY   32  21  64 SW21G28   29.98S
MILES CITY     SUNNY     30  24  78 SW10      29.97F
BAKER          CLOUDY    32  30  92 W9        29.97S
LIVINGSTON     SUNNY     39  18  42 SW20G31   29.98S

CENTRAL MONTANA


CITY           SKY/WX    TMP DP  RH WIND       PRES   REMARKS
HAVRE          SUNNY     24  22  91 SW7       29.92F
LEWISTOWN      MOSUNNY   42  26  53 W9        29.92S
GREAT FALLS    CLOUDY    37  25  61 S20       29.91R
CUT BANK       PTSUNNY   36  29  75 W13       29.87R
HELENA         PTSUNNY   26  23  88 CALM      30.03R
BUTTE          PTSUNNY   18  15  88 CALM      30.02R
BOZEMAN        MOSUNNY   25  18  74 S5        30.05S

WESTERN MONTANA


CITY           SKY/WX    TMP DP  RH WIND       PRES   REMARKS
MISSOULA       CLOUDY    31  26  82 CALM      30.04S
KALISPELL      NOT AVBL

NORTH DAKOTA


CITY           SKY/WX    TMP DP  RH WIND       PRES   REMARKS
WILLISTON      CLOUDY    24  20  84 S6        29.99F
DICKINSON      CLOUDY    28  25  88 SW5       29.95F FOG
MINOT          CLOUDY    22  18  85 S9        30.03F FOG
BISMARCK       CLOUDY    21  19  92 S8        30.08F

SOUTHERN SASKATCHEWAN


CITY           SKY/WX    TMP DP  RH WIND       PRES   REMARKS
REGINA         CLOUDY    23  21  93 S8        29.94  FOG
MOOSE JAW      PTSUNNY   28  27  93 W12       29.91F
ESTEVAN        FLURRIES  19  16  86 SE5       29.99F
SWIFT CURRENT  SUNNY     23  23 100 SW12      29.85F




USA.gov is the U.S. government's official web portal to all federal, state and local government web resources and services.